SCP
0 0 0 0 0 0 0 0 0 0 0 0 0 0 0 0 0 0 0 0 0 0 0 0 0 1 1 1 1 2 2 3
0 0 0 0 0 0 0 0 0 0 0 0 0 0 0 0 0 0 -0 -0 0 0 0 0 0 0 0 1 1 1 1 2
0 0 0 0 0 0 0 0 0 0 0 0 0 0 0 0 0 0 0 0 0 0 0 0 0 0 0 0 0 0 2 3
0 0 0 0 0 0 0 0 0 0 0 0 0 0 0 0 0 0 0 0 0 0 0 0 0 0 0 0 0 1 2 2
0 0 0 0 -0 0 0 0 0 0 0 0 0 0 0 0 0 0 0 0 0 0 0 0 0 0 0 0 0 0 1 2
0 0 0 0 0 0 0 0 0 0 0 0 0 0 0 0 0 0 0 0 0 0 0 0 0 0 0 0 0 0 0 1
0 0 0 0 0 0 0 0 0 0 0 0 0 0 0 0 0 0 0 0 0 0 0 0 0 0 0 0 0 0 0 1
0 0 0 0 0 0 0 0 0 0 0 0 0 0 0 0 0 0 0 0 0 0 0 0 0 0 0 0 0 0 0 1
0 0 0 0 0 0 0 0 0 0 0 0 0 0 0 0 0 0 0 0 0 0 0 0 0 0 0 0 0 0 1 1
0 0 0 0 0 0 0 0 0 0 0 0 0 0 0 0 0 0 0 0 0 0 0 0 -0 0 0 0 0 0 1 1
-0 0 0 0 0 0 0 0 0 0 0 0 0 0 0 0 0 0 0 0 0 0 0 0 0 -0 -0 0 0 0 0 1
0 0 0 0 0 0 0 0 0 0 0 0 0 0 0 0 0 0 -0 -0 -0 0 0 0 0 0 0 0 0 0 0 0
0 0 -0 -0 -0 -0 -0 -0 0 -0 0 0 0 0 0 0 0 0 0 0 0 0 0 0 0 0 0 0 0 0 0 0
-0 -0 -0 -0 0 -0 0 0 -0 -0 0 -0 -0 -0 -0 -0 -0 0 0 0 0 0 0 0 0 0 0 0 0 0 0 0
-0 -0 -0 0 -0 -0 0 0 -0 -0 -0 0 0 -0 -0 0 -0 -0 0 -0 -0 0 0 0 0 0 0 0 0 0 0 0
0 -0 0 0 -0 -0 -0 -0 -0 -0 -0 0 -0 0 0 0 0 0 0 0 -0 0 0 0 0 0 0 0 0 0 0 0
0 0 -0 -0 -0 -0 -0 -0 -0 -0 -0 -0 -0 -0 0 0 0 0 0 0 0 0 0 0 0 0 0 0 0 0 0 0
0 -0 0 0 0 0 0 0 0 0 0 0 0 0 0 0 0 -0 0 0 0 0 0 0 0 0 0 0 0 0 0 0
0 0 0 0 0 -0 -0 -0 0 -0 0 0 0 0 0 -0 0 0 0 0 0 0 0 0 0 0 0 0 0 0 0 0
0 0 0 0 0 -0 -0 0 -0 0 0 0 0 0 0 0 0 0 0 0 0 0 0 0 0 0 0 0 0 0 0 0
Wind_Speed_500mb
38 27 49 45 48 40 38 28 26 28 27 29 22 26 30 34 38 41 43 44 52 58 59 64 60 62 59 64 75 79 77 75
47 34 36 50 44 42 41 42 40 34 37 38 34 32 34 39 49 55 58 61 66 70 68 64 66 64 63 61 67 72 77 71
49 28 27 38 31 48 45 50 48 46 49 49 52 48 45 41 43 53 67 66 62 62 66 66 64 66 68 61 64 73 75 71
16 35 28 35 19 15 14 24 26 30 31 35 42 51 57 60 62 64 66 70 71 69 67 72 74 72 69 68 58 72 72 74
18 15 16 29 34 37 35 32 36 37 41 46 46 52 63 73 78 78 80 79 81 80 75 74 73 69 68 69 69 68 73 78
31 27 40 48 48 51 42 41 48 56 62 66 67 63 64 69 76 84 87 73 77 84 84 78 74 74 72 68 71 73 65 79
40 50 56 63 64 64 62 54 58 62 70 70 65 72 86 83 88 98 104 103 103 93 88 79 79 76 77 70 66 73 69 74
54 60 61 69 71 71 68 70 75 82 75 74 85 83 82 80 76 79 79 73 81 80 86 79 83 79 81 73 65 69 66 71
48 59 68 71 71 65 72 71 67 62 59 71 76 79 84 88 86 92 97 86 89 69 77 78 73 78 82 73 66 66 63 67
77 83 86 77 73 73 79 75 73 77 77 80 84 83 78 70 71 68 64 64 80 68 72 79 80 80 84 74 65 63 71 63
76 69 66 67 70 71 75 71 68 70 66 71 74 66 65 64 64 64 64 63 69 67 71 81 88 81 78 63 58 62 71 58
75 70 65 65 59 53 57 60 61 63 63 72 62 59 61 58 60 61 62 69 71 76 75 75 78 69 68 58 57 61 44 52
66 58 62 69 68 73 75 71 65 61 63 64 62 65 64 62 56 57 64 76 75 71 71 69 62 65 67 56 75 73 78 70
67 69 70 68 64 68 74 63 56 55 59 69 66 61 61 58 58 58 59 66 66 68 71 61 60 63 58 74 61 75 76 66
72 69 70 68 72 71 67 62 61 61 63 62 61 57 57 57 50 56 62 65 62 65 60 56 77 61 61 54 76 80 70 61
70 71 72 70 69 71 63 52 51 54 57 56 55 57 59 59 54 57 54 53 44 54 52 75 51 55 70 81 74 63 54 40
66 63 63 66 69 66 56 53 51 47 50 55 59 60 60 61 49 47 39 57 62 72 41 68 62 73 71 58 49 47 48 41
51 59 63 65 67 58 49 46 39 37 40 45 50 64 54 48 35 42 66 78 86 87 89 90 82 75 67 56 46 42 38 45
41 48 49 55 62 53 54 49 38 35 37 42 20 32 33 28 61 68 87 95 94 97 91 81 71 69 63 51 41 42 39 41
16 6 6 15 28 44 46 38 33 22 29 35 24 61 72 78 80 82 83 89 92 89 80 73 73 68 59 53 50 49 45 50
Wind_Direction_500mb
326 321 217 227 218 216 213 219 221 229 236 242 233 235 244 257 261 263 265 268 269 270 270 270 274 266 264 259 258 257 260 265
300 307 331 215 208 214 222 219 220 224 234 247 261 263 266 266 266 267 269 273 276 277 276 275 270 272 263 267 264 262 259 260
285 297 330 284 265 242 230 232 238 246 245 238 242 249 252 261 269 272 274 279 280 280 278 277 276 271 265 261 265 259 262 257
326 355 331 353 310 215 170 186 188 197 217 235 245 249 253 258 262 267 272 278 284 281 277 275 274 275 267 255 258 262 258 254
333 338 342 245 287 289 277 281 276 261 254 255 261 264 265 265 268 270 274 278 280 281 278 275 273 274 268 260 252 252 257 252
315 309 298 290 289 288 295 288 280 279 277 270 264 260 260 263 264 267 271 272 276 277 276 273 272 273 269 267 252 249 256 247
305 297 292 296 290 289 291 280 272 273 271 270 271 275 277 273 270 265 262 263 270 270 272 270 269 269 267 266 256 250 249 241
291 289 286 282 282 285 283 275 272 271 269 271 279 278 274 268 263 260 261 259 261 263 266 265 266 264 266 266 260 248 245 226
279 278 281 284 280 278 271 268 260 262 267 270 268 273 272 272 268 262 263 263 254 262 263 263 261 260 268 266 253 239 229 213
290 288 284 279 272 268 269 271 273 274 274 269 271 275 273 270 262 264 264 261 249 260 258 259 260 263 265 258 241 229 211 198
293 287 281 278 275 272 269 271 273 271 264 268 275 274 272 265 262 261 255 256 254 256 259 262 264 268 265 250 230 209 203 193
289 282 279 281 282 270 264 266 268 271 269 275 274 272 271 265 259 258 253 250 253 257 261 261 262 267 257 235 203 187 190 207
285 276 280 279 275 276 275 275 273 269 269 270 268 268 267 267 262 258 250 246 248 255 254 260 259 245 236 214 187 182 192 193
282 278 279 277 272 271 274 272 265 263 261 263 264 259 258 260 261 259 256 255 255 250 262 252 248 225 221 187 186 193 190 184
280 278 278 276 277 273 268 267 266 258 258 258 258 262 260 259 253 253 253 258 253 241 236 234 210 188 170 185 171 169 166 169
284 280 278 277 272 268 269 269 262 258 255 250 258 265 261 262 254 253 251 250 228 200 210 178 173 169 168 163 160 159 159 174
289 282 275 271 270 267 269 269 263 261 240 243 253 257 256 249 242 224 218 193 183 153 156 195 176 165 159 158 164 171 170 170
289 276 272 269 263 258 263 263 256 248 250 259 270 263 220 188 191 186 182 142 140 143 144 146 148 151 151 154 160 163 162 156
298 281 271 260 255 245 245 245 243 240 253 272 222 177 174 177 170 145 131 140 143 140 137 142 148 147 145 146 149 142 147 150
348 313 337 262 230 210 214 215 210 224 241 228 190 139 156 132 128 137 139 134 134 133 134 140 145 142 139 139 141 148 145 146
Wind_Speed_850mb
38 27 49 45 48 40 38 28 26 28 27 29 22 26 30 34 38 41 43 44 52 58 59 64 60 62 59 64 75 79 77 75
47 34 36 50 44 42 41 42 40 34 37 38 34 32 34 39 49 55 58 61 66 70 68 64 66 64 63 61 67 72 77 71
49 28 27 38 31 48 45 50 48 46 49 49 52 48 45 41 43 53 67 66 62 62 66 66 64 66 68 61 64 73 75 71
16 35 28 35 19 15 14 24 26 30 31 35 42 51 57 60 62 64 66 70 71 69 67 72 74 72 69 68 58 72 72 74
18 15 16 29 34 37 35 32 36 37 41 46 46 52 63 73 78 78 80 79 81 80 75 74 73 69 68 69 69 68 73 78
31 27 40 48 48 51 42 41 48 56 62 66 67 63 64 69 76 84 87 73 77 84 84 78 74 74 72 68 71 73 65 79
40 50 56 63 64 64 62 54 58 62 70 70 65 72 86 83 88 98 104 103 103 93 88 79 79 76 77 70 66 73 69 74
54 60 61 69 71 71 68 70 75 82 75 74 85 83 82 80 76 79 79 73 81 80 86 79 83 79 81 73 65 69 66 71
48 59 68 71 71 65 72 71 67 62 59 71 76 79 84 88 86 92 97 86 89 69 77 78 73 78 82 73 66 66 63 67
77 83 86 77 73 73 79 75 73 77 77 80 84 83 78 70 71 68 64 64 80 68 72 79 80 80 84 74 65 63 71 63
76 69 66 67 70 71 75 71 68 70 66 71 74 66 65 64 64 64 64 63 69 67 71 81 88 81 78 63 58 62 71 58
75 70 65 65 59 53 57 60 61 63 63 72 62 59 61 58 60 61 62 69 71 76 75 75 78 69 68 58 57 61 44 52
66 58 62 69 68 73 75 71 65 61 63 64 62 65 64 62 56 57 64 76 75 71 71 69 62 65 67 56 75 73 78 70
67 69 70 68 64 68 74 63 56 55 59 69 66 61 61 58 58 58 59 66 66 68 71 61 60 63 58 74 61 75 76 66
72 69 70 68 72 71 67 62 61 61 63 62 61 57 57 57 50 56 62 65 62 65 60 56 77 61 61 54 76 80 70 61
70 71 72 70 69 71 63 52 51 54 57 56 55 57 59 59 54 57 54 53 44 54 52 75 51 55 70 81 74 63 54 40
66 63 63 66 69 66 56 53 51 47 50 55 59 60 60 61 49 47 39 57 62 72 41 68 62 73 71 58 49 47 48 41
51 59 63 65 67 58 49 46 39 37 40 45 50 64 54 48 35 42 66 78 86 87 89 90 82 75 67 56 46 42 38 45
41 48 49 55 62 53 54 49 38 35 37 42 20 32 33 28 61 68 87 95 94 97 91 81 71 69 63 51 41 42 39 41
16 6 6 15 28 44 46 38 33 22 29 35 24 61 72 78 80 82 83 89 92 89 80 73 73 68 59 53 50 49 45 50
Wind_Direction_850mb
326 321 217 227 218 216 213 219 221 229 236 242 233 235 244 257 261 263 265 268 269 270 270 270 274 266 264 259 258 257 260 265
300 307 331 215 208 214 222 219 220 224 234 247 261 263 266 266 266 267 269 273 276 277 276 275 270 272 263 267 264 262 259 260
285 297 330 284 265 242 230 232 238 246 245 238 242 249 252 261 269 272 274 279 280 280 278 277 276 271 265 261 265 259 262 257
326 355 331 353 310 215 170 186 188 197 217 235 245 249 253 258 262 267 272 278 284 281 277 275 274 275 267 255 258 262 258 254
333 338 342 245 287 289 277 281 276 261 254 255 261 264 265 265 268 270 274 278 280 281 278 275 273 274 268 260 252 252 257 252
315 309 298 290 289 288 295 288 280 279 277 270 264 260 260 263 264 267 271 272 276 277 276 273 272 273 269 267 252 249 256 247
305 297 292 296 290 289 291 280 272 273 271 270 271 275 277 273 270 265 262 263 270 270 272 270 269 269 267 266 256 250 249 241
291 289 286 282 282 285 283 275 272 271 269 271 279 278 274 268 263 260 261 259 261 263 266 265 266 264 266 266 260 248 245 226
279 278 281 284 280 278 271 268 260 262 267 270 268 273 272 272 268 262 263 263 254 262 263 263 261 260 268 266 253 239 229 213
290 288 284 279 272 268 269 271 273 274 274 269 271 275 273 270 262 264 264 261 249 260 258 259 260 263 265 258 241 229 211 198
293 287 281 278 275 272 269 271 273 271 264 268 275 274 272 265 262 261 255 256 254 256 259 262 264 268 265 250 230 209 203 193
289 282 279 281 282 270 264 266 268 271 269 275 274 272 271 265 259 258 253 250 253 257 261 261 262 267 257 235 203 187 190 207
285 276 280 279 275 276 275 275 273 269 269 270 268 268 267 267 262 258 250 246 248 255 254 260 259 245 236 214 187 182 192 193
282 278 279 277 272 271 274 272 265 263 261 263 264 259 258 260 261 259 256 255 255 250 262 252 248 225 221 187 186 193 190 184
280 278 278 276 277 273 268 267 266 258 258 258 258 262 260 259 253 253 253 258 253 241 236 234 210 188 170 185 171 169 166 169
284 280 278 277 272 268 269 269 262 258 255 250 258 265 261 262 254 253 251 250 228 200 210 178 173 169 168 163 160 159 159 174
289 282 275 271 270 267 269 269 263 261 240 243 253 257 256 249 242 224 218 193 183 153 156 195 176 165 159 158 164 171 170 170
289 276 272 269 263 258 263 263 256 248 250 259 270 263 220 188 191 186 182 142 140 143 144 146 148 151 151 154 160 163 162 156
298 281 271 260 255 245 245 245 243 240 253 272 222 177 174 177 170 145 131 140 143 140 137 142 148 147 145 146 149 142 147 150
348 313 337 262 230 210 214 215 210 224 241 228 190 139 156 132 128 137 139 134 134 133 134 140 145 142 139 139 141 148 145 146